Regional Weather Roundup
Issued by NWS Pendleton, OR

Home | Current Version | Previous Version | Text Only | Print | Product List | Glossary On
Versions: 1 2 3 4 5 6 7 8 9 10 11 12 13 14 15 16 17 18 19 20 21 22 23 24 25 26 27 28 29 30 31 32 33 34 35 36 37 38 39 40 41 42 43 44 45 46 47 48 49 50
000
ASUS46 KPDT 051510
RWRPDT
PENDLETON REGIONAL WEATHER ROUNDUP
NATIONAL WEATHER SERVICE PENDLETON OREGON
800 AM PDT SAT SEP 5 2015

NOTE: FAIR INDICATES FEW OR NO CLOUDS BELOW 12,000 FEET WITH NO
SIGNIFICANT WEATHER AND/OR OBSTRUCTIONS TO VISIBILITY.

# INDICATES UNOFFICIAL STATION AND DATA

WAZ520-051610-
EAST SLOPES OF WASHINGTON CASCADES

CITY            SKY/WX      TMP DP  RH  WIND    PRES   REMARKS
#BULLFROG 2SW   N/A         49  39  68  NW1     27.60R
#BUMPING DAM    N/A         38  N/A N/A S2      N/A
#CLE ELUM HS    N/A         50  41  71  W7      29.94R
#CLIFFDEL 2NW   N/A         43  38  82  W3      N/A
#EASTON DOT     N/A         47  40  76  N1      N/A
#GLENWOOD       N/A         31  30  96  CALM    30.04R
#MANASTASH CYN  N/A         49  36  61  N1      29.92R
#NELSON         N/A         51  41  68  CALM    29.96F
#NELSON 3SW     N/A         47  39  74  E1      30.18S
#NILE           N/A         49  40  71  CALM    29.24R
#PEOH POINT     N/A         41  36  82  SW7     N/A
#SNOWDEN        N/A         45  38  76  NW1     N/A
#TEANAWAY 4NE   N/A         41  38  89  CALM    N/A
#TROUT LAKE 1NE N/A         51  43  74  W8      30.01R
$$

WAZ521-051610-
SIMCOE HIGHLANDS

CITY            SKY/WX      TMP DP  RH  WIND    PRES   REMARKS
#BICKLETON HS   N/A         45  26  47  W6      N/A
#SATUS PASS DOT N/A         39  37  92  CALM    N/A
#CENTERVILLE 4W N/A         51  43  74  W24     29.72R
#CENTERVILLE 1SWN/A         48  41  77  W12     29.96R WCI 43
#GOLDENDALE     N/A         45  41  86  W6      N/A
#GOLDENDALE 1NE N/A         46  40  79  SW2     N/A
#GOLDENDALE 5WNWN/A         47  42  83  NW10    29.98R
#GOODNOE HILLS  N/A         54  43  66  W17     N/A
#LYLE 6NE       N/A         50  44  80  W9      29.98R
$$

WAZ026-051610-
KITTITAS VALLEY

CITY            SKY/WX      TMP DP  RH  WIND    PRES   REMARKS
ELLENSBURG AP   MOCLDY      53  39  59  NW22G29 29.93R
#ELLENSBURG CWU N/A         52  41  66  NW7     29.87R
#ELLENSBURG 3NE N/A         50  41  71  N12     29.94R
#ELLENSBURG 1E  N/A         51  38  61  NW1     N/A
#KITTITAS 4N    N/A         51  40  66  NW16    29.91R
#KITTITAS 3S    N/A         51  41  68  NW5     29.90R
#THORP 6N       N/A         49  41  74  N18G31  29.93R WCI 43
$$

WAZ027-051610-
YAKIMA VALLEY

CITY            SKY/WX      TMP DP  RH  WIND    PRES   REMARKS
SUNNYSIDE AP    MOCLDY      50  48  93  CALM    29.94R
YAKIMA AIRPORT  PTCLDY      60  36  41  NW13G30 29.94R
YAKIMA-VAGABOND MOSUNNY     55  38  53  N12     29.94R
#DONALD 2NE     N/A         57  30  35  NW3     28.79
#GRANDVIEW      N/A         51  47  86  CALM    29.95R
#MABTON         N/A         56  44  64  SW3     29.94R
#MOXEE 2E       N/A         54  33  45  CALM    29.92R
#NACHES 2SW     N/A         52  41  66  W13G25  29.93R
#TERRACE HTS    N/A         52  39  61  N1      29.89R
#TOPPENISH      N/A         56  41  57  CALM    29.85R
#WAPATO 4NE     N/A         57  30  35  NW3     28.79
#W YAKIMA       N/A         56  39  53  NW1     29.93R
#WHITE SWAN 5E  N/A         47  41  79  CALM    29.93R
#WILEY CITY 3W  N/A         54  36  50  CALM    29.90R
$$

WAZ028-051610-
LOWER COLUMBIA BASIN...WASHINGTON

CITY            SKY/WX      TMP DP  RH  WIND    PRES   REMARKS
PASCO           LGT RAIN    54  49  83  S7      29.95R
#BENTON CITY    N/A         53  45  74  SW3     29.83
#CONNELL 5N     N/A         50  48  93  CALM    29.90R
#CONNELL 5NW    N/A         50  48  93  CALM    29.87R
#ELTOPIA 6NW    N/A         51  49  93  S2      28.90R
#KAHLOTUS       N/A         50  45  83  N25     29.85S
#KENNEWICK      N/A         49  39  68  NW1     27.60R
#KENNEWICK 3S   N/A         51  48  89  SE2     29.93R
#PASCO-BROADMOORN/A         54  51  90  CALM    29.85R
#PATERSON       N/A         55  46  72  SW15    29.92S
#PROSSER DOT    N/A         52  49  89  E5      N/A
#PROSSER        N/A         53  45  74  CALM    29.92R
#SAGEMOOR 2W    N/A         52  49  89  CALM    29.78R
#TOUCHET 2S     N/A         52  48  86  SW8     29.93S
#WEST PASCO     N/A         54  48  80  SE1     29.93R
$$

WAZ029-051610-
FOOTHILLS OF THE BLUES...WASHINGTON

CITY            SKY/WX      TMP DP  RH  WIND    PRES   REMARKS
WALLA WALLA AP  LGT RAIN    50  47  89  S17     29.95R
#DAYTON SCHOOL  N/A         48  43  83  S9      29.92R
#LOWDEN 2SE     N/A         52  49  89  SW6     29.93R
#PLEASANT VIEW 1N/A         48  47  96  SW7     29.91R
#PRESCOTT       N/A         50  48  93  SW2     29.91R
#SUDBURY        N/A         53  N/A N/A CALM    N/A
#WHITMAN COLLEGEN/A         49  47  93  S5      30.00R
#WAITSBURG 5S   N/A         47  46  96  S13     30.00R WCI 41
#WAITSBURG 8N   N/A         47  44  89  S13     29.79R WCI 41
#WALLA WALLA U  N/A         51  49  93  CALM    29.96
#WHITMAN MISSIONN/A         52  48  86  S2      29.97R
$$

WAZ030-051610-
BLUE MOUNTAINS...WASHINGTON

CITY            SKY/WX      TMP DP  RH  WIND    PRES   REMARKS
#DIXIE 5SE      N/A         42  41  96  SW13    29.86R WCI 35
#SKI BLUEWOOD   N/A         37  35  92  CALM    29.89R
$$

ORZ009-041-WAZ024-051610-
COLUMBIA RIVER GORGE

CITY            SKY/WX      TMP DP  RH  WIND    PRES   REMARKS
THE DALLES AP   MOSUNNY     59  42  53  NW17    30.01R
#ARLINGTON AIRPON/A         53  44  71  W7      30.06R
#MARYHILL       N/A         53  42  66  W3      N/A
#MOSIER 1S      N/A         55  36  49  W6      30.02S

$$

ORZ510-051610-
NORTH CENTRAL OREGON

CITY            SKY/WX      TMP DP  RH  WIND    PRES   REMARKS
#CHENOWITH 1W   N/A         49  42  77  NW23    N/A    WCI 42
#DUFUR 9E       N/A         48  40  74  W10     30.04
#GRASS VALLEY 1SN/A         46  41  83  SW7     30.05R
#MAUPIN SCHOOL  N/A         44  42  93  CALM    30.05R
#MORO SCHOOL    N/A         51  44  77  W15G25  30.00R
#SHANIKO 4NW    N/A         40  38  92  SW6     30.02R
#TYGH VALLEY 2NEN/A         39  37  92  CALM    30.02R
#WASCO 5NE      N/A         51  44  77  N16G24  29.96R
$$

ORZ511-051610-
CENTRAL OREGON

CITY            SKY/WX      TMP DP  RH  WIND    PRES   REMARKS
BEND AIRPORT    SUNNY       41  36  82  SW7     30.08R
PRINEVILLE AP   SUNNY       41  39  93  CALM    30.08R
REDMOND AIRPORT SUNNY       40  35  82  S6      30.08R
#BEND 1SW       N/A         38  36  92  S1      N/A
#BEND-AWBREY    N/A         39  36  89  S7      30.08R
#BEND-KIM LN    N/A         39  37  92  SW5     30.06R
#CULVER         N/A         46  38  73  CALM    30.03R
#MADRAS         N/A         42  36  79  S7      N/A
#POWELL BUTTE 3EN/A         38  34  85  NE1     N/A
#POWELL BUTTE   N/A         47  36  65  W6      29.70R
#PRINEVILLE 3N  N/A         36  35  96  W1      30.06R
#WARM SPRINGS   N/A         41  38  89  CALM    30.03R

$$


ORZ509-051610-
EAST SLOPES OF OREGON CASCADES

CITY            SKY/WX      TMP DP  RH  WIND    PRES   REMARKS
#CAMP SHERMAN   N/A         40  38  92  CALM    30.11S
#LA PINE 4NW    N/A         34  31  89  CALM    30.16R
#SISTERS AIRPOR N/A         47  41  79  N6      30.17S
#SISTERS 3N     N/A         45  36  70  CALM    30.14R
#SUNRIVER       N/A         34  33  96  CALM    30.01R
#TUMALO 3W      N/A         43  32  65  SW2     29.97R

$$

ORZ044-051610-
LOWER COLUMBIA BASIN...OREGON

CITY            SKY/WX      TMP DP  RH  WIND    PRES   REMARKS
HERMISTON       MOCLDY      53  47  80  SW13    29.95R
#BOARDMAN SCHOOLN/A         54  46  74  SW9     29.96R
#BOARDMAN 8SW   N/A         54  46  74  SW8     29.95R
#ECHO 8SW       N/A         53  45  74  SW8     29.96S
#IONE SCHOOL    N/A         55  39  55  SW16G24 29.96R
#IRRIGON 4NW    N/A         53  48  83  S10     N/A
#UMATILLA SCHOOLN/A         51  51  100 CALM    29.98S
#UMATILLA       N/A         54  46  74  S7      29.86S
$$

ORZ507-051610-
NORTHERN FOOTHILLS OF THE BLUES

CITY            SKY/WX      TMP DP  RH  WIND    PRES   REMARKS
PENDLETON AIRPT LGT RAIN    50  44  80  W18G25  29.96R
#ADAMS 3WNW     N/A         47  45  93  SW5     29.97R
#ATHENA         N/A         47  46  96  CALM    29.98R
#CAYUSE         N/A         48  45  89  W2      29.96
#HELIX SCHOOL   N/A         47  45  93  SW6     29.94R
#HELIX 3N       N/A         47  45  93  SW10    29.93S
#HOLDMAN 5SE    N/A         49  46  89  SW7     29.96S
#HOLDMAN 6E     N/A         47  45  93  N10     29.75S
#M-F GROVE ELEM N/A         50  45  83  S3      29.95R
#M-FREEWATER 5SEN/A         49  46  89  S9      29.97R
#PENDLETON DNTN N/A         50  46  86  CALM    30.01R
#PDT AQUATIC CTRN/A         50  43  77  CALM    29.94R
#PDT SUNRIDGE   N/A         49  46  89  CALM    29.99R
#PENDLETON 7NW  N/A         49  44  83  SW12    29.81R WCI 44
#PILOT ROCK     N/A         48  42  80  S7      30.00R
#TUTUILLA       N/A         49  46  89  CALM    29.98R
#UMAPINE 2E     N/A         51  48  89  SW1     29.94R
#WESTON SCHOOL  N/A         46  44  93  W5      29.91R

$$

ORZ508-051610-
SOUTHERN FOOTHILLS OF THE BLUES

CITY            SKY/WX      TMP DP  RH  WIND    PRES   REMARKS
#AJAX           N/A         49  34  56  S9      29.93S
#CONDON 5W      N/A         44  37  76  SW15    29.96R WCI 37
#HEPPNER EOC    N/A         49  42  77  SW1     29.92R
#HEPPNER 4NE    N/A         46  40  79  W7      29.98R
#LEXINGTON 2SE  N/A         53  42  66  CALM    29.98R
#OLEX 4N        N/A         54  42  64  W24     29.97R
#RUGGS 5NE      N/A         46  40  79  SW8     30.14R
#RUGGS 2SW      N/A         47  38  71  W10     29.99R

$$

ORZ502-503-051610-
BLUE MOUNTAINS

CITY            SKY/WX      TMP DP  RH  WIND    PRES   REMARKS
MEACHAM         RAIN        42  39  89  W7      29.96R FOG
#HEPPNER 15SE   N/A         39  37  92  NW2     29.88R
#LONG CREEK HS  N/A         43  42  96  CALM    29.98R
#PIKES PEAK     N/A         40  39  96  SW16    27.99S WCI 32
#TOLLGATE       N/A         34  33  96  S7      29.80R
#TROY SCHOOL    N/A         47  43  86  CALM    29.79R
#UKIAH          N/A         42  40  93  CALM    30.06R
#WESTON 4E      N/A         41  40  96  SW7     29.91R
$$

ORZ505-051610-
JOHN DAY BASIN

CITY            SKY/WX      TMP DP  RH  WIND    PRES   REMARKS
JOHN DAY        CLOUDY      44  41  89  W9      30.03R
#JOHN DAY KJDY  N/A         46  46  100 CALM    30.04F
#DAYVILLE SCHOOLN/A         47  40  76  CALM    30.01R
#MITCHELL       N/A         43  41  93  CALM    30.20R
#MITCHELL 8NW   N/A         46  34  63  SW1     30.23R
#MONUMENT HS    N/A         48  44  86  CALM    30.03R
#MT. VERNON 5SE N/A         41  39  93  CALM    29.99R
#SPRAY SCHOOL   N/A         53  N/A N/A W3      N/A
$$

ORZ506-051610-
OCHOCO AND JOHN DAY HIGHLANDS

CITY            SKY/WX      TMP DP  RH  WIND    PRES   REMARKS
#PAULINA SCHOOL N/A         43  39  86  CALM    30.01R
#PINE MTN OBS   N/A         32  30  92  NW3     N/A
#PRAIRIE CITY   N/A         43  42  96  W1      30.09R
#SENECA         N/A         39  N/A N/A W2      N/A
#SENECA 9NW     N/A         38  36  92  CALM    30.03R
$$

ORZ049-051610-
GRANDE RONDE VALLEY

CITY            SKY/WX      TMP DP  RH  WIND    PRES   REMARKS
LA GRANDE       CLOUDY      43  32  65  E6      29.99R
#COVE           N/A         40  40  100 CALM    30.02R
#COVE SCHOOL    N/A         40  38  92  CALM    30.01R
#ELGIN 3N       N/A         42  39  89  S5      29.96R
#ELGIN 1E       N/A         42  38  86  CALM    N/A
#ISLAND CITY 4N N/A         45  44  96  CALM    30.13R
#LA GRANDE ELEM N/A         42  38  86  CALM    30.00R
#UNION 1S       N/A         42  38  86  E5      29.90R
$$

ORZ050-051610-
WALLOWA COUNTY

CITY            SKY/WX      TMP DP  RH  WIND    PRES   REMARKS
#ENTERPRISE HS  N/A         41  39  93  CALM    29.98R
#IMNAHA SCHOOL  N/A         48  45  89  CALM    29.96R
#IMNAHA 10S     N/A         43  41  93  CALM    29.95R
#JOSEPH 3N      N/A         40  34  79  CALM    29.97R
#JOSEPH 3W      N/A         38  38  100 CALM    29.80R
#LOSTINE        N/A         40  38  92  CALM    29.75R
#MT HOWARD 8000 N/A         30  28  92  CALM    29.92R
#PROMISE 1S     N/A         38  35  89  E2      30.04R
#WALLOWA SCHOOL N/A         41  39  93  CALM    29.94R



$$



USA.gov is the U.S. government's official web portal to all federal, state and local government web resources and services.